Weather reports worldwide

Advertisment
Sarzana/Luni, Italy (16125): temperature & dewpoint: 23.05.2020 14:00:00 - 29.05.2020 14:00:00 (CEST)Sarzana/Luni, Italy (16125): wind speed: 23.05.2020 14:00:00 - 29.05.2020 14:00:00 (CEST)Sarzana/Luni, Italy (16125): wind direction: 23.05.2020 14:00:00 - 29.05.2020 14:00:00 (CEST)Sarzana/Luni, Italy (16125): reduced air pressure: 23.05.2020 14:00:00 - 29.05.2020 14:00:00 (CEST)Sarzana/Luni, Italy (16125): visibility: 23.05.2020 14:00:00 - 29.05.2020 14:00:00 (CEST)
Date & Time tt [°C] td [°C] ff [km/h] ff [kn] dd ppp [hPa] vv [km]
29.05.2020 14:00:00 19,0 8,4 22 12 N 1020,0 12
29.05.2020 13:00:00 19,0 10,0 4 2 E - 10
29.05.2020 12:00:00 19,0 12,0 11 6 ESE - 10
29.05.2020 11:00:00 18,6 13,5 4 2 SSW 1020,0 10
29.05.2020 10:00:00 16,0 12,0 5 3 WNW - 10
29.05.2020 09:00:00 15,0 14,0 4 2 WNW - 10
29.05.2020 08:00:00 14,2 13,9 4 2 WSW 1019,3 10
29.05.2020 07:00:00 - - - - - - -
29.05.2020 06:00:00 - - - - - - -
29.05.2020 05:00:00 - - - - - - -
29.05.2020 04:00:00 - - - - - - -
29.05.2020 03:00:00 - - - - - - -
29.05.2020 02:00:00 - - - - - - -
29.05.2020 01:00:00 - - - - - - -
29.05.2020 00:00:00 - - - - - - -
28.05.2020 23:00:00 15,8 10,1 4 2 WNW 1020,9 20
28.05.2020 22:00:00 17,0 11,0 0 0 N - 10
28.05.2020 21:00:00 19,0 10,0 5 3 E - 10
28.05.2020 20:00:00 20,6 5,8 2 1 SE 1021,3 20
28.05.2020 19:00:00 - - - - - - -
28.05.2020 18:00:00 - - - - - - -
28.05.2020 17:00:00 - - - - - - -
28.05.2020 16:00:00 - - - - - - -
28.05.2020 15:00:00 - - - - - - -
28.05.2020 14:00:00 23,0 3,0 8 4 SSE 1024,1 15
28.05.2020 13:00:00 22,0 3,0 9 5 SSE - 10
28.05.2020 12:00:00 22,0 4,0 8 4 SSE - 10
28.05.2020 11:00:00 21,6 3,8 8 4 ESE 1025,3 15
28.05.2020 10:00:00 19,0 10,0 8 4 W - 10
28.05.2020 09:00:00 16,0 12,0 11 6 W - 10
28.05.2020 08:00:00 14,0 11,5 13 7 W 1026,3 12
28.05.2020 07:00:00 - - - - - - -
28.05.2020 06:00:00 - - - - - - -
28.05.2020 05:00:00 - - - - - - -
28.05.2020 04:00:00 - - - - - - -
28.05.2020 03:00:00 - - - - - - -
28.05.2020 02:00:00 - - - - - - -
28.05.2020 01:00:00 - - - - - - -
28.05.2020 00:00:00 - - - - - - -
27.05.2020 23:00:00 - - - - - - -
27.05.2020 22:00:00 - - - - - - -
27.05.2020 21:00:00 - - - - - - -
27.05.2020 20:00:00 - - - - - - -
27.05.2020 19:00:00 - - - - - - -
27.05.2020 18:00:00 - - - - - - -
27.05.2020 17:00:00 - - - - - - -
27.05.2020 16:00:00 - - - - - - -
27.05.2020 15:00:00 - - - - - - -
27.05.2020 14:00:00 22,0 7,4 9 5 SSE 1028,0 20
27.05.2020 13:00:00 22,0 8,0 11 6 S - 10
27.05.2020 12:00:00 22,0 7,0 9 5 SSE - 10
27.05.2020 11:00:00 21,0 7,2 9 5 S 1028,7 20
27.05.2020 10:00:00 20,0 9,0 4 2 S - 10
27.05.2020 09:00:00 19,0 10,0 5 3 WSW - 10
27.05.2020 08:00:00 16,0 12,5 9 5 W 1028,5 20
27.05.2020 07:00:00 - - - - - - -
27.05.2020 06:00:00 - - - - - - -
27.05.2020 05:00:00 - - - - - - -
27.05.2020 04:00:00 - - - - - - -
27.05.2020 03:00:00 - - - - - - -
27.05.2020 02:00:00 - - - - - - -
27.05.2020 01:00:00 - - - - - - -
27.05.2020 00:00:00 - - - - - - -
26.05.2020 23:00:00 18,0 13,3 9 5 W 1025,8 15
26.05.2020 22:00:00 20,0 14,0 4 2 W - 10
26.05.2020 21:00:00 20,0 12,0 0 0 N - 10
26.05.2020 20:00:00 22,0 10,5 0 0 N 1023,9 20
26.05.2020 19:00:00 - - - - - - -
26.05.2020 18:00:00 - - - - - - -
26.05.2020 17:00:00 - - - - - - -
26.05.2020 16:00:00 - - - - - - -
26.05.2020 15:00:00 - - - - - - -
26.05.2020 14:00:00 23,0 9,8 11 6 ENE 1024,7 20
26.05.2020 13:00:00 23,0 10,0 15 8 E - 10
26.05.2020 12:00:00 22,0 13,0 11 6 SE - 10
26.05.2020 11:00:00 22,0 12,3 9 5 E 1024,5 20
26.05.2020 10:00:00 22,0 10,0 0 0 N - 10
26.05.2020 09:00:00 19,0 13,0 4 2 W - 10
26.05.2020 08:00:00 16,6 12,0 9 5 W 1023,9 20
26.05.2020 07:00:00 - - - - - - -
26.05.2020 06:00:00 - - - - - - -
26.05.2020 05:00:00 - - - - - - -
26.05.2020 04:00:00 - - - - - - -
26.05.2020 03:00:00 - - - - - - -
26.05.2020 02:00:00 - - - - - - -
26.05.2020 01:00:00 - - - - - - -
26.05.2020 00:00:00 - - - - - - -
25.05.2020 23:00:00 - - - - - - -
25.05.2020 22:00:00 - - - - - - -
25.05.2020 21:00:00 - - - - - - -
25.05.2020 20:00:00 - - - - - - -
25.05.2020 19:00:00 - - - - - - -
25.05.2020 18:00:00 - - - - - - -
25.05.2020 17:00:00 - - - - - - -
25.05.2020 16:00:00 - - - - - - -
25.05.2020 15:00:00 - - - - - - -
25.05.2020 14:00:00 24,6 4,9 8 4 SSW 1024,7 15
25.05.2020 13:00:00 24,0 4,0 4 2 SE - 10
25.05.2020 12:00:00 23,0 9,0 9 5 SSE - 10
25.05.2020 11:00:00 21,8 10,3 8 4 E 1025,4 15
25.05.2020 10:00:00 21,0 13,0 4 2 ESE - 10
25.05.2020 09:00:00 18,0 13,0 4 2 W - 10
25.05.2020 08:00:00 16,2 12,2 4 2 W 1025,2 15
25.05.2020 07:00:00 - - - - - - -
25.05.2020 06:00:00 - - - - - - -
25.05.2020 05:00:00 - - - - - - -
25.05.2020 04:00:00 - - - - - - -
25.05.2020 03:00:00 - - - - - - -
25.05.2020 02:00:00 - - - - - - -
25.05.2020 01:00:00 - - - - - - -
25.05.2020 00:00:00 - - - - - - -
24.05.2020 23:00:00 - - - - - - -
24.05.2020 22:00:00 - - - - - - -
24.05.2020 21:00:00 - - - - - - -
24.05.2020 20:00:00 - - - - - - -
24.05.2020 19:00:00 - - - - - - -
24.05.2020 18:00:00 - - - - - - -
24.05.2020 17:00:00 - - - - - - -
24.05.2020 16:00:00 - - - - - - -
24.05.2020 15:00:00 - - - - - - -
24.05.2020 14:00:00 - - - - - - -
24.05.2020 13:00:00 - - - - - - -
24.05.2020 12:00:00 - - - - - - -
24.05.2020 11:00:00 - - - - - - -
24.05.2020 10:00:00 - - - - - - -
24.05.2020 09:00:00 - - - - - - -
24.05.2020 08:00:00 - - - - - - -
24.05.2020 07:00:00 - - - - - - -
24.05.2020 06:00:00 - - - - - - -
24.05.2020 05:00:00 - - - - - - -
24.05.2020 04:00:00 - - - - - - -
24.05.2020 03:00:00 - - - - - - -
24.05.2020 02:00:00 - - - - - - -
24.05.2020 01:00:00 - - - - - - -
24.05.2020 00:00:00 - - - - - - -
23.05.2020 23:00:00 - - - - - - -
23.05.2020 22:00:00 - - - - - - -
23.05.2020 21:00:00 - - - - - - -
23.05.2020 20:00:00 - - - - - - -
23.05.2020 19:00:00 - - - - - - -
23.05.2020 18:00:00 - - - - - - -
23.05.2020 17:00:00 - - - - - - -
23.05.2020 16:00:00 - - - - - - -
23.05.2020 15:00:00 - - - - - - -
23.05.2020 14:00:00 - - - - - - -

tt = temperature
td = dewpoint
ff = wind speed
dd = wind direction
ppp = reduced air pressure
vv = visibility

Next stations